Back to catalog

COSMOS 858

AliveMilitaryLEO
NORAD 9443·PAYLOAD·🇷🇺 Russia

Launched Sep 29, 1976 from Plesetsk Cosmodrome

Loading…

Next Passes (next 24 hours)

TLE

FreshSource: Space-Track

Epoch: Sep 13, 2026, 20:28 UTC

1  9443U 76098A   26256.85328508  .00000090  00000-0  40477-4 0  9995
2  9443  74.0519 355.7566 0012711  92.9349 267.3259 14.35148483611477

Track COSMOS 858 in real time with AllMySat

Download on the App Store